Weather History for Austin, TX

Change the Weather History Date:

Monday, March 4, 2013

  Actual Average Record
Temperature  
Mean Temperature 72 °F 59 °F  
Max Temperature 89 °F 69 °F 91 °F (1991)
Min Temperature 55 °F 49 °F 24 °F (2002)
Degree Days  
Heating Degree Days 0 8  
Month to date heating degree days 31 32  
Since 1 July heating degree days 1052 1369  
Cooling Degree Days 7 1  
Month to date cooling degree days 7 4  
Year to date cooling degree days 56 31  
Growing Degree Days 22 (Base 50)    
Moisture  
Dew Point 46 °F    
Average Humidity 48    
Maximum Humidity 77    
Minimum Humidity 19    
Precipitation  
Precipitation 0.00 in 0.09 in 1.56 in (1992)
Month to date precipitation 0.00 0.34  
Year to date precipitation 3.26 4.58  
Snow  
Snow 0.00 in - - ()
Month to date snowfall 0.0  
Since 1 July snowfall T  
Snow Depth 0.00 in    
Sea Level Pressure  
Sea Level Pressure 29.79 in    
Wind  
Wind Speed 7 mph (South)    
Max Wind Speed 15 mph    
Max Gust Speed 22 mph    
Visibility 10 miles    
Events      
T = Trace of Precipitation, MM = Missing Value Source: NWS Daily Summary

Daily Weather History Graph

Daily Weather History Graph

Search for Another Location

Airport:

Trip Planner

Search our weather history database for the weather conditions in past years. The results will help you decide how hot, cold, wet, or windy it might be!

Date:

Astronomy

Mar. 04, 2013 Rise Set
Actual Time 6:53 AM CST 6:32 PM CST
Civil Twilight 6:29 AM CST 6:56 PM CST
Nautical Twilight 6:01 AM CST 7:24 PM CST
Astronomical Twilight 5:33 AM CST 7:51 PM CST
Moon 12:47 AM CST (3/4) 11:32 AM CST (3/4)
Length of Visible Light 12h 26m
Length of Day
11h 38m
Waning Gibbous, 52% of the Moon is Illuminated
Mar 4
Waning Gibbous
Mar 4
Last Quarter
Mar 11
New
Mar 19
First Quarter
Mar 27
Full

Hourly Weather History & Observations

Time (CST) Temp. Dew Point Humidity Pressure Visibility Wind Dir Wind Speed Gust Speed Precip Events Conditions
12:51 AM 57.0 °F 41.0 °F 55% 29.91 in 10.0 mi South 5.8 mph 16.1 mph N/A   Clear
1:51 AM 55.9 °F 42.1 °F 60% 29.90 in 10.0 mi South 8.1 mph 17.3 mph N/A   Clear
2:51 AM 55.9 °F 43.0 °F 62% 29.87 in 10.0 mi South 8.1 mph - N/A   Clear
3:51 AM 55.9 °F 45.0 °F 67% 29.87 in 10.0 mi South 6.9 mph 17.3 mph N/A   Clear
4:51 AM 55.0 °F 46.9 °F 74% 29.86 in 10.0 mi SSW 6.9 mph - N/A   Clear
5:51 AM 55.0 °F 46.9 °F 74% 29.86 in 10.0 mi South 6.9 mph - N/A   Clear
6:51 AM 55.0 °F 48.0 °F 77% 29.86 in 10.0 mi SSW 8.1 mph - N/A   Clear
7:51 AM 57.0 °F 48.9 °F 74% 29.87 in 10.0 mi South 5.8 mph - N/A   Clear
8:51 AM 57.9 °F 50.0 °F 75% 29.88 in 10.0 mi South 5.8 mph - N/A   Clear
9:51 AM 62.1 °F 50.0 °F 65% 29.87 in 10.0 mi SSW 6.9 mph - N/A   Clear
10:51 AM 69.1 °F 48.9 °F 49% 29.85 in 10.0 mi SSW 8.1 mph 18.4 mph N/A   Clear
11:51 AM 73.0 °F 48.0 °F 41% 29.82 in 10.0 mi Variable 4.6 mph 18.4 mph N/A   Clear
12:51 PM 84.0 °F 45.0 °F 25% 29.77 in 10.0 mi SSW 8.1 mph 17.3 mph N/A   Clear
1:51 PM 86.0 °F 44.1 °F 23% 29.73 in 10.0 mi SSW 9.2 mph 17.3 mph N/A   Clear
2:51 PM 89.1 °F 43.0 °F 20% 29.70 in 10.0 mi South 9.2 mph 18.4 mph N/A   Clear
3:51 PM 88.0 °F 42.1 °F 20% 29.69 in 10.0 mi SSW 8.1 mph 17.3 mph N/A   Clear
4:51 PM 86.0 °F 42.1 °F 21% 29.68 in 10.0 mi South 8.1 mph - N/A   Clear
5:51 PM 82.9 °F 41.0 °F 23% 29.69 in 10.0 mi South 9.2 mph - N/A   Clear
6:51 PM 79.0 °F 42.1 °F 27% 29.70 in 10.0 mi South 4.6 mph - N/A   Clear
7:51 PM 75.9 °F 42.1 °F 30% 29.70 in 10.0 mi South 5.8 mph - N/A   Clear
8:51 PM 73.9 °F 42.1 °F 32% 29.73 in 10.0 mi SSE 6.9 mph - N/A   Clear
9:51 PM 71.1 °F 53.1 °F 53% 29.74 in 10.0 mi South 5.8 mph - N/A   Clear
10:51 PM 68.0 °F 54.0 °F 61% 29.75 in 10.0 mi South 5.8 mph - N/A   Clear
11:51 PM 64.9 °F 55.0 °F 70% 29.75 in 10.0 mi South 6.9 mph - N/A   Clear